Zurück zum Katalog

STARLINK-3601

AktivKommunikationVLEO
NORAD 51804·PAYLOAD·🇺🇸 United States

Gestartet Feb 25, 2022 von Vandenberg Space Force Base

Loading…

Nächste Überflüge (nächste 24 Stunden)

TLE

AktuellSource: CelesTrak SupGP

Epoche: Sep 15, 2026, 02:41 UTC

1 51804C 22017AN  26258.11229167 -.00004725  00000+0 -13958-3 0  2588
2 51804  53.1575 188.5602 0001334  91.7774  25.6948 15.34398487    19

Verfolge STARLINK-3601 in Echtzeit mit AllMySat

Download on the App Store